Theta_e
325 325 322 329 331 329 330 327 326 328 329 328 330 331 334 335 337 338 333 325 321 328 333 336 333 330 321 309 322 330 332 332 333 333 332 329 325 320 311 310 310 319 323 321 316 309 310 310 310
326 325 322 329 330 331 329 328 326 326 325 330 332 333 334 335 337 336 336 324 319 328 333 335 332 329 319 321 331 333 331 328 331 330 328 325 318 310 308 309 309 313 313 310 310 310 310 310 310
326 323 326 329 331 330 328 327 327 326 325 325 329 335 336 337 338 337 336 322 320 327 332 334 332 327 319 318 331 331 330 329 327 326 323 317 310 308 308 309 311 313 311 310 310 310 309 309 309
323 322 324 329 330 329 328 326 325 325 325 329 331 334 337 336 337 337 336 318 325 330 334 333 332 326 317 322 324 327 327 325 320 318 312 309 308 308 309 309 310 311 309 309 309 309 309 309 309
321 322 328 328 327 327 327 326 324 326 327 329 332 333 334 334 336 337 335 319 325 327 334 332 330 325 317 325 329 327 326 321 314 312 309 308 308 308 308 309 309 309 309 309 309 309 309 309 309
322 321 324 325 326 325 326 325 325 326 326 326 328 328 329 329 334 337 336 323 328 328 331 331 329 324 318 326 329 325 324 319 313 309 308 308 308 308 308 309 309 309 309 309 309 309 309 309 309
317 322 319 320 321 322 324 323 324 326 326 326 326 329 331 330 334 336 335 327 327 324 331 330 329 325 320 316 322 326 327 321 313 309 308 308 308 308 308 308 309 309 309 309 309 309 309 309 311
316 319 317 318 319 321 321 322 323 324 325 326 326 328 328 336 334 336 335 329 327 319 330 332 330 328 324 321 327 331 329 323 311 309 309 309 309 308 308 308 309 309 309 309 309 309 310 310 312
317 316 315 315 316 318 321 322 322 322 323 325 330 332 333 333 335 336 334 330 327 316 319 330 330 328 327 325 328 332 330 323 311 310 309 309 311 310 309 309 309 309 309 310 310 310 310 311 315
315 316 314 315 317 318 319 320 321 322 323 324 328 332 331 333 335 335 334 331 327 327 324 327 326 321 325 325 328 330 328 318 312 311 310 314 318 316 311 310 310 310 310 310 310 310 311 313 316
311 312 312 312 313 313 316 319 320 321 323 323 324 327 332 333 335 335 333 332 329 327 327 326 326 322 314 324 326 328 326 317 313 312 312 313 316 313 311 310 311 310 311 311 312 312 314 316 318
313 311 311 311 311 311 312 313 319 320 321 321 321 323 328 332 335 336 333 333 330 327 326 322 326 322 316 325 326 327 323 317 313 313 313 313 311 311 311 312 314 313 313 314 313 314 317 319 320
313 312 312 312 312 312 313 311 312 316 319 320 320 324 326 330 334 335 334 333 331 328 326 321 325 323 323 327 326 324 319 318 316 313 314 313 312 311 312 313 314 316 316 315 315 315 318 321 322
311 312 312 312 312 312 313 313 311 311 314 319 320 322 327 329 331 333 333 333 331 330 328 326 325 325 326 328 327 323 321 321 319 314 315 314 312 313 313 314 315 317 317 317 317 317 319 321 322
312 313 312 313 312 313 312 313 314 312 312 317 319 319 328 328 330 331 332 333 332 331 330 327 324 319 331 333 329 321 322 322 317 315 316 317 315 314 314 316 318 320 321 321 320 321 321 322 322
312 312 315 313 313 313 313 314 312 312 316 316 318 323 330 330 329 331 331 331 333 332 331 328 324 320 329 329 322 322 324 323 323 322 317 318 319 317 317 321 322 323 323 324 323 324 324 323 324
313 316 315 314 312 313 314 314 315 313 312 314 319 324 329 329 326 329 330 328 331 330 329 328 327 324 324 329 326 324 324 326 326 325 321 319 319 319 323 325 325 325 325 325 325 325 325 325 326
315 316 315 314 313 313 314 314 314 312 311 311 313 319 326 325 326 327 328 328 329 328 327 327 327 330 329 328 329 329 327 328 328 327 324 321 323 323 325 326 326 326 327 327 326 327 327 327 327
313 315 315 314 312 314 315 315 314 312 311 309 311 314 317 317 324 327 325 328 330 329 328 329 331 329 327 326 329 330 328 328 327 323 322 324 325 325 325 326 326 327 326 326 326 326 326 327 327
313 315 315 314 313 315 316 314 313 312 311 309 310 311 311 313 320 325 324 324 327 330 330 330 330 329 328 328 327 327 327 326 324 323 324 326 327 326 324 324 325 326 326 326 326 327 327 327 328
314 314 312 314 315 315 316 315 313 311 309 309 309 310 310 310 313 316 318 321 323 324 326 328 329 329 329 329 329 328 329 328 327 327 327 324 323 326 325 324 327 327 327 327 327 328 328 328 329
315 313 316 314 319 318 313 318 312 310 308 308 309 308 309 310 312 315 312 315 320 323 323 325 328 328 329 329 330 329 329 328 328 328 327 326 325 325 325 326 328 328 328 327 327 327 328 328 328
314 312 315 315 317 317 315 317 313 308 309 309 309 308 307 308 309 309 309 312 312 315 318 322 324 325 326 326 326 328 328 328 327 326 327 327 328 328 327 328 328 328 327 326 326 326 327 325 323
310 312 314 314 315 319 315 317 313 312 308 309 309 308 308 308 309 308 308 310 309 311 309 312 316 319 323 324 324 326 326 326 325 324 325 325 325 322 323 323 322 323 322 322 324 324 323 322 321
311 314 320 320 320 319 311 313 311 309 309 309 309 310 310 310 309 310 309 309 310 310 310 309 309 309 310 317 317 322 321 321 322 323 323 324 325 322 324 324 323 321 321 323 317 318 321 320 320
311 312 316 318 317 316 310 313 312 309 307 307 309 311 310 309 312 310 310 310 309 310 311 312 312 311 310 309 309 311 311 312 313 314 315 317 321 317 319 319 320 317 313 310 310 311 312 313 315
311 312 310 313 309 313 311 310 308 307 306 305 305 306 305 305 307 310 310 311 310 309 309 310 313 312 312 312 313 311 311 311 310 310 313 312 312 314 315 314 313 310 310 312 312 313 313 314 315
309 308 312 313 315 314 311 310 309 308 307 306 305 304 303 303 305 305 305 306 306 306 308 308 309 312 311 312 312 312 312 311 311 311 312 311 311 312 311 311 312 313 313 314 313 312 312 313 314
311 311 309 310 311 313 313 311 307 307 307 304 301 301 301 301 301 302 303 304 305 304 304 304 304 305 305 306 308 309 310 309 311 312 312 313 313 313 313 313 313 314 314 312 311 311 312 312 312
307 310 309 310 311 309 310 311 307 306 304 302 300 299 299 299 299 299 300 300 300 301 303 304 304 304 303 303 303 303 304 305 305 306 307 309 310 311 311 311 311 311 309 308 307 307 307 306 305
Wind_Speed
6 4 3 1 5 5 12 8 8 7 3 2 2 5 6 9 4 2 5 19 26 31 31 29 25 21 17 20 22 20 18 17 17 15 11 7 5 4 4 6 7 12 11 10 10 9 9 8 7
7 4 3 3 7 11 14 13 14 12 6 1 4 7 8 8 4 2 9 22 28 31 30 30 27 23 21 24 24 22 20 17 15 12 10 8 6 6 7 7 8 10 11 10 9 8 7 6 5
6 6 6 4 11 18 13 9 13 8 8 10 4 4 4 2 3 3 8 23 33 32 29 30 28 24 23 25 23 22 19 17 14 12 10 9 8 8 8 8 8 10 9 8 7 6 5 4 3
5 4 4 10 22 18 20 8 6 6 6 6 4 6 3 7 2 6 12 24 31 31 30 30 28 25 24 25 24 22 18 15 13 12 10 9 9 9 9 10 9 9 8 7 6 5 3 2 2
8 4 11 16 27 22 9 9 7 6 2 4 5 2 4 7 8 8 15 25 30 33 30 30 28 25 24 24 22 20 18 15 13 11 10 10 10 11 10 10 9 9 8 7 5 4 3 2 1
9 6 12 21 25 16 13 16 14 15 16 9 7 12 7 9 10 13 15 24 27 34 31 31 28 25 24 25 22 20 18 15 12 11 11 11 10 11 11 10 9 8 7 6 5 4 2 1 1
11 9 20 24 20 17 10 14 17 17 23 21 11 11 7 10 14 16 17 23 27 32 28 30 29 26 23 23 23 21 17 14 11 11 12 12 12 12 11 10 9 7 7 6 5 3 3 2 1
4 4 12 14 15 22 15 14 13 15 19 15 10 9 17 10 18 20 21 24 25 31 28 25 26 26 22 22 22 20 17 14 12 13 12 11 13 13 12 11 9 7 7 6 5 4 3 3 2
3 6 10 13 16 12 9 8 11 10 13 15 8 10 10 9 20 23 25 25 26 30 33 25 26 25 22 21 22 20 16 13 13 12 12 10 11 11 11 10 9 7 7 6 5 5 4 3 3
7 5 6 6 4 7 11 14 13 11 13 14 13 15 17 13 23 29 31 30 31 30 31 28 27 31 26 25 23 21 18 15 14 13 13 11 12 12 11 10 9 8 8 7 6 5 5 4 3
3 7 7 10 15 14 15 15 17 15 18 14 12 13 15 15 25 29 28 27 30 29 28 28 25 29 31 29 26 22 18 17 15 14 13 12 12 11 11 10 9 9 8 7 6 5 5 5 5
6 10 10 9 15 11 13 19 21 22 18 14 16 17 15 21 29 32 27 27 28 29 28 29 26 27 31 29 28 24 19 18 16 15 14 13 12 11 11 10 9 9 9 8 7 7 6 6 6
12 13 11 11 16 18 18 23 23 31 24 19 16 17 16 19 28 31 30 25 25 27 28 29 27 27 31 31 28 25 21 19 16 14 13 13 12 12 11 11 11 10 10 8 8 7 7 7 8
9 17 21 22 21 22 19 20 20 29 30 27 21 19 19 21 25 26 31 34 32 28 29 27 28 26 30 29 29 25 23 19 16 14 13 12 13 12 12 11 11 9 9 9 9 9 9 9 10
13 13 17 21 20 11 11 21 20 27 23 25 27 20 18 19 20 26 31 35 34 27 24 26 28 29 31 29 26 24 21 19 16 14 13 12 12 12 12 11 11 10 10 10 10 10 11 11 11
6 7 8 5 3 7 10 17 9 8 12 20 21 18 8 12 18 21 21 23 23 25 27 24 27 29 30 30 26 23 22 20 17 15 15 15 14 13 13 12 12 11 12 12 12 12 12 12 10
3 10 17 17 7 11 14 6 7 11 8 7 8 7 5 9 11 15 20 22 24 25 23 22 23 23 26 26 23 22 22 21 19 18 17 17 16 15 14 13 12 13 13 14 14 13 13 11 10
13 11 10 15 5 9 12 7 10 15 16 13 14 6 8 7 4 10 17 18 18 20 20 20 20 23 25 25 23 22 23 22 21 20 19 18 16 15 15 15 14 15 15 14 14 13 13 11 10
13 14 14 15 8 5 10 13 8 12 19 18 16 5 8 8 13 9 8 11 15 18 18 19 17 18 22 23 25 24 24 22 22 21 18 18 16 16 16 16 15 15 16 16 15 13 13 13 12
11 12 9 10 5 6 3 9 8 14 14 19 14 12 10 15 22 22 10 11 14 17 18 16 16 17 17 17 20 23 22 22 21 18 19 19 18 17 17 16 16 17 16 16 15 16 16 16 16
4 5 7 5 3 7 9 4 3 8 22 20 7 24 27 29 30 25 21 13 11 15 18 16 16 17 17 16 17 19 19 19 18 16 17 18 20 20 20 18 18 18 18 18 18 18 19 20 18
5 8 4 7 3 2 4 2 4 5 10 9 13 29 28 26 34 33 30 23 14 11 12 17 18 18 17 16 17 18 18 17 17 14 13 13 13 16 17 19 19 19 18 18 17 16 15 14 13
8 15 5 7 3 2 6 3 4 4 6 7 21 23 25 29 39 35 30 22 23 22 20 10 13 16 17 17 16 15 14 15 16 15 15 15 14 14 17 21 22 20 15 15 16 15 14 12 13
16 7 5 3 2 4 10 2 5 4 4 4 12 24 30 29 35 33 21 19 21 24 23 18 17 14 9 10 12 14 8 9 8 4 3 2 5 6 7 8 10 11 12 11 13 15 15 14 15
14 7 1 1 3 4 9 6 2 8 8 4 5 11 12 19 24 23 21 23 19 27 22 21 19 18 15 8 8 6 4 4 3 6 6 6 5 9 11 14 15 17 18 13 15 17 17 16 16
9 6 3 3 3 3 8 6 6 6 7 5 3 5 9 10 14 16 12 13 14 13 17 18 20 19 21 13 10 11 6 7 8 8 7 8 7 8 12 13 13 15 15 15 13 13 12 11 11
5 4 4 1 2 2 3 0 1 4 9 12 13 12 13 13 10 7 7 8 9 8 14 12 13 11 9 15 18 9 9 8 11 6 7 11 12 12 14 17 14 13 13 11 9 8 7 8 9
3 3 2 1 1 3 3 3 4 4 6 8 11 13 12 13 16 15 13 10 6 6 10 9 8 6 6 10 7 9 7 8 10 11 12 15 13 11 14 16 12 12 10 8 8 6 6 6 6
4 2 3 1 2 1 3 4 2 2 4 7 9 9 11 14 17 18 17 17 14 12 10 8 6 5 4 6 5 3 3 3 5 6 6 6 7 7 9 8 10 10 10 9 7 6 6 6 7
2 3 3 3 1 2 2 4 3 5 6 8 9 10 11 15 17 18 19 19 18 18 16 13 10 8 6 5 4 3 3 2 2 1 3 5 5 5 5 6 8 9 8 6 6 6 5 5 5
Wind_Direction
244 250 228 236 241 243 242 228 234 206 233 196 142 208 248 302 215 346 189 174 175 176 175 179 177 177 171 161 158 160 161 158 160 168 173 185 195 207 195 156 136 124 120 119 117 108 104 99 94
226 219 200 223 244 238 246 228 219 231 204 245 275 249 249 263 260 289 159 176 175 176 177 178 177 179 169 167 165 166 163 170 174 181 190 207 220 208 183 162 148 127 122 119 113 109 103 95 87
216 195 219 231 234 238 250 216 250 255 253 238 257 247 278 270 276 239 205 177 174 176 177 180 178 180 176 176 172 177 177 180 187 198 205 214 213 188 172 171 154 138 130 126 122 118 110 96 75
193 200 246 240 237 239 257 257 271 244 217 203 219 250 247 254 264 226 196 178 174 174 176 182 181 183 180 178 180 181 185 189 195 202 206 206 193 177 170 169 157 147 140 136 132 127 120 99 70
185 218 239 241 249 251 234 285 270 257 216 213 211 235 252 276 256 221 190 181 176 178 179 182 183 187 183 183 183 184 189 192 195 197 198 191 184 178 173 165 156 150 151 151 151 149 145 132 94
189 229 234 243 248 247 261 267 265 265 270 270 259 270 268 258 233 211 195 182 179 179 180 183 185 191 188 187 188 190 189 188 191 193 189 184 182 182 175 166 160 163 168 170 171 174 171 164 154
234 227 244 256 268 270 268 272 263 263 266 261 263 269 279 245 221 203 192 179 181 183 180 183 185 192 196 196 195 191 189 192 194 191 190 188 191 191 180 173 172 175 183 186 190 194 191 202 221
231 259 256 253 262 259 250 265 272 262 266 282 242 253 256 233 212 193 185 181 181 185 184 181 184 189 196 198 199 194 194 201 201 194 193 195 202 196 184 182 185 192 196 203 204 205 211 221 242
167 246 263 267 261 268 239 248 283 255 267 268 247 249 257 247 207 187 179 178 183 188 191 186 186 185 188 198 203 199 205 211 208 200 199 198 199 180 183 188 196 203 208 213 216 221 228 235 239
215 248 262 292 270 301 285 280 295 284 270 265 266 258 250 235 205 191 185 183 185 185 189 190 194 192 186 193 203 205 208 213 210 206 204 195 193 188 189 203 212 217 219 221 230 239 243 245 242
240 253 308 287 297 297 278 277 272 285 264 268 309 327 263 224 205 201 191 189 188 187 187 191 195 195 190 195 199 206 208 211 210 211 211 207 204 208 212 216 218 218 219 230 247 248 248 246 244
283 271 279 298 293 283 276 276 268 261 268 290 298 298 263 235 215 210 199 190 188 189 191 195 194 197 191 198 200 208 212 214 215 216 217 218 218 220 220 218 218 219 226 241 247 245 252 256 259
262 287 299 305 297 291 278 250 258 267 258 282 305 301 259 243 229 215 210 195 193 193 194 196 193 197 192 199 202 206 214 219 222 224 224 223 224 225 225 225 226 231 239 244 250 249 256 262 262
304 295 292 293 278 277 266 270 250 249 257 263 281 301 268 246 237 225 213 210 204 195 196 192 195 197 201 200 207 207 214 220 226 227 226 223 222 221 225 229 228 233 240 247 252 253 254 259 262
275 283 291 279 270 262 263 252 245 251 260 257 261 292 273 253 229 225 226 219 211 196 192 193 197 200 204 205 213 213 216 223 228 233 232 230 227 227 228 229 233 239 246 250 256 259 262 265 268
290 285 318 320 279 236 217 269 281 247 263 251 257 291 263 264 242 227 225 215 197 187 191 198 200 204 204 210 212 209 219 224 228 235 239 238 238 236 231 233 238 245 252 257 262 265 266 268 267
239 304 303 310 275 270 217 287 95 36 2 324 325 322 341 294 235 212 215 207 194 190 188 199 206 208 207 215 213 212 219 228 234 238 241 240 237 230 232 238 243 250 255 261 265 269 271 268 270
308 307 292 279 298 286 244 229 59 44 34 0 353 324 69 50 346 220 218 211 196 197 196 203 211 213 211 216 220 215 220 228 237 243 243 235 237 236 238 245 249 255 259 264 270 271 269 272 271
303 290 284 284 280 250 231 222 62 39 31 15 0 1 78 52 69 140 190 202 193 195 202 210 214 210 210 211 221 220 221 232 240 240 236 237 242 243 247 253 255 257 264 262 260 263 267 269 270
307 281 303 311 188 218 89 79 86 52 47 26 359 50 43 52 74 96 150 191 208 213 221 222 221 214 212 213 209 218 221 230 238 243 244 247 247 248 252 258 263 264 263 263 259 261 267 266 265
320 301 306 275 90 38 109 96 49 58 53 15 357 64 50 52 57 61 66 102 189 213 215 217 218 222 220 218 216 220 226 234 239 244 251 255 250 249 258 252 257 260 261 261 261 261 262 268 270
293 8 349 340 185 132 357 93 41 35 50 336 20 51 50 47 63 61 42 55 99 156 202 204 205 215 212 220 222 222 229 237 244 250 250 246 244 240 242 245 251 253 260 267 268 267 262 258 262
284 326 323 360 44 129 22 101 13 8 13 326 44 45 56 54 59 60 40 33 49 73 82 133 194 216 217 216 216 218 229 238 244 251 251 245 248 248 255 256 255 255 259 266 269 264 256 262 271
292 297 221 156 326 43 349 339 32 2 300 353 54 67 60 62 65 61 42 44 40 68 62 61 66 81 129 171 200 186 184 197 181 196 211 244 237 252 273 290 285 285 275 279 270 268 270 269 272
340 347 315 81 39 46 343 56 39 334 333 350 27 32 71 58 64 69 50 33 36 62 63 59 58 60 56 66 1 92 168 153 241 275 290 262 292 314 276 284 285 273 284 294 294 281 274 270 265
318 3 18 12 8 21 9 22 5 328 12 36 9 1 27 53 71 62 51 55 46 45 49 64 49 51 56 45 39 44 5 10 334 324 323 319 311 301 308 301 292 289 296 288 268 261 256 253 255
349 33 344 62 141 88 32 320 94 354 45 49 50 44 44 61 73 91 85 90 69 73 66 38 45 43 58 34 37 3 52 15 311 303 334 352 324 297 295 286 278 260 255 253 246 239 242 243 240
311 344 285 23 15 90 80 43 61 41 53 72 66 67 63 72 80 87 97 95 96 83 78 81 90 119 73 29 358 8 322 300 283 280 277 267 256 245 241 235 233 232 224 221 224 222 216 223 229
338 357 28 10 335 121 131 111 55 92 100 86 74 70 78 73 74 78 80 81 83 86 97 103 97 91 102 106 129 134 209 250 245 219 221 251 251 242 235 239 226 221 219 215 209 208 215 225 241
265 327 310 307 147 44 59 122 81 107 95 95 82 74 78 83 83 80 76 72 70 69 73 73 73 75 76 86 101 130 165 184 220 262 236 210 206 219 227 228 229 230 226 222 216 221 235 241 260